www.pogodaiklimat.ru

Погода и климат >> Архив погоды >> Мексика >> Hermosillo la Magna


ПОГОДА в Hermosillo la Magna

  • Прогноз погоды в Hermosillo la Magna
  • Монитор погоды в Hermosillo la Magna
  • Климат города

АРХИВ ПОГОДЫ в Hermosillo la Magna

Время (UTC), дата Ветер
(напр.,м/с)
 
Видим.   Явления Облачность Т
(С)
Тd
(С)
f
(%)
Тe
(С)
Тes
(С)
Комфортность P
(гПа)
Po
(гПа)
Тmin
(С)
Tmax
(С)
R
(мм)
S
(см)
03 16.03 н/о н/о +29.3 +1.9 17 1014.3 333.7
06 16.03 н/о н/о +24.2 +5.0 29 1015.6 991.4 +17.0 +39.4
09 16.03 н/о н/о +20.8 +4.2 34 1015.5 990.7
12 16.03 н/о н/о +18.7 +1.6 32 1015.1 990.1 +18.6 +39.4
15 16.03 н/о н/о +26.5 +1.3 19 1015.3 991.3
18 16.03 н/о н/о +34.8 -0.3 11 1014.9 991.5 +18.2 +34.8
21 16.03 З 1 н/о н/о +40.3 -3.4 6 +36 +36 очень
жарко
1011.8 988.9
00 17.03 З 3 н/о н/о +39.3 -1.8 8 1010.3 988.2 +18.2 +41.6
03 17.03 З 2 н/о н/о +31.1 +0.6 14 +28 +28 жарко 1012.3 988.7
06 17.03 З 1 н/о н/о +24.9 +2.4 23 +24 +24 комфорт 1014.0 989.9 +18.2 +41.6
09 17.03 СВ 2 н/о н/о +20.6 +2.3 30 +22 +22 комфорт 1014.7 989.9
12 17.03 СВ 2 н/о н/о +19.0 +2.1 32 +20 +20 1014.5 989.8 +18.3 +41.6
15 17.03 ЮВ 1 н/о н/о +22.9 +2.8 27 +23 +23 комфорт 1015.4 991.1
18 17.03 СВ 2 н/о н/о +35.1 +1.8 12 +32 +32 жарко 1014.9 991.5 +17.2 +35.1
21 17.03 н/о н/о
00 18.03 З 3 н/о н/о +38.9 -2.3 7 1010.8 5.0 +17.2 +40.6
03 18.03 н/о н/о
06 18.03 З 2 н/о н/о +26.9 +3.4 22 +26 +26 жарко 1014.5 990.2 +17.2 +40.6
09 18.03 СВ 2 н/о н/о +20.5 +3.4 32 +22 +22 комфорт 1015.5 991.0
12 18.03 В 1 н/о н/о +18.6 +1.2 31 +20 +20 1016.3 991.3 +18.6 +40.6
15 18.03 СВ 4 н/о н/о +23.2 +2.1 25 +23 +23 комфорт 1017.7 993.0
18 18.03 СВ 2 н/о н/о +33.8 +3.0 14 +31 +31 жарко 1016.8 993.3 +16.5 +34.1
21 18.03 ЮЗ 2 н/о н/о +39.7 +0.5 9 +36 +36 очень
жарко
1013.2 990.2
00 19.03 З 4 н/о н/о +39.1 +0.8 9 +35 +35 очень
жарко
1011.3 988.1 +16.5 +40.7
03 19.03 З 3 н/о н/о +29.2 +6.8 24 +28 +28 жарко 1013.3 989.5
06 19.03 Ю 3 н/о н/о +25.9 +4.6 25 +25 +25 комфорт 1015.5 991.1 +16.5 +40.7
09 19.03 СВ 2 н/о н/о +22.7 +5.2 32 +23 +23 комфорт 1015.3 991.0
12 19.03 В 1 н/о н/о +5.7 -2 -2 1015.7 990.9 +17.3 +40.7
15 19.03 н/о н/о
18 19.03 н/о н/о
21 19.03 н/о н/о
00 20.03 З 4 н/о н/о +35.7 +3.5 13 1012.0 5.0 +16.5 +39.7
03 20.03 З 3 н/о н/о +29.5 +4.8 21 +28 +28 жарко 1013.9 989.9
06 20.03 З 1 н/о н/о +24.3 +7.7 35 +25 +25 комфорт 1015.5 1154.8 +16.5 +39.7
09 20.03 СВ 2 н/о н/о +20.2 +5.7 39 +22 +22 комфорт 1015.1 990.6
12 20.03 В 1 н/о н/о +5.1 -2 -2 1014.8 990.1 +17.6 +39.7
15 20.03 В 2 н/о н/о +20.6 +5.9 38 +22 +22 комфорт 1016.2 991.4
18 20.03 н/о н/о
21 20.03 З 3 н/о н/о +37.3 +4.6 13 +34 +34 очень
жарко
1012.3 988.9
00 21.03 н/о н/о
03 21.03 З 4 н/о н/о +28.7 +7.1 26 +28 +28 жарко 1013.1 989.0
06 21.03 СЗ 1 н/о н/о +22.7 +7.5 38 +24 +24 комфорт 1015.0 990.7 +16.4 +38.4
09 21.03 штиль 0 н/о н/о +19.7 +8.9 50 +21 +21 комфорт 1015.2 990.6
12 21.03 В 2 н/о н/о +17.5 +6.3 48 +18 +18 1014.9 989.9 +17.2 +38.4
15 21.03 В 2 н/о н/о +18.3 +6.9 47 +19 +19 1016.1 991.4
18 21.03 н/о н/о
21 21.03 н/о н/о
00 22.03 н/о н/о
03 22.03 З 2 н/о н/о +26.8 +7.0 28 +26 +26 жарко 1012.8 988.9
06 22.03 н/о н/о
09 22.03 н/о н/о
12 22.03 СВ 2 н/о н/о +4.6 -4 -4 1013.5 988.5 +13.5 +36.8
18 22.03 ЮЗ 3 н/о н/о +29.6 +4.2 20 +28 +28 жарко 1013.8 989.7 +12.7 +29.6
21 22.03 З 4 н/о н/о +33.0 +2.8 15 +30 +30 жарко 1011.5 988.1

 

Местоположение метеостанции Hermosillo la Magna (Мексика): широта 29.08 долгота -110.95 высота над уровнем моря 210 м.

В архиве по умолчанию представлена погода в Hermosillo la Magna за последнюю неделю. Архивные данные за месяц целиком и за предыдущие месяцы, начиная с января 2011 года, Вы можете получить, выбрав интересующий диапазон дат из раскрывающегося списка и нажав кнопку "Ввод!".

Внимание! Время в таблицах - всемирное. Для получения местного времени необходимо прибавить поправку, которая в Hermosillo la Magna равна -7 ч.

Смотрите также архив погоды в соседних городах и на ближайших метеорологических станциях:

Погода в Hermosillo (Мексика) (10 км)
Погода в Empalme (Мексика) (128 км)
Погода в Guaymas Upper Air Site (Мексика) (129 км)
Погода в Pilares de Nacoz (Мексика) (189 км)
Погода в Altar Son (Мексика) (201 км)
Погода в Ciudad Obregon (Мексика) (218 км)
Погода в Santa Rosalia (Мексика) (237 км)
Погода в Temosachic (Мексика) (307 км)
Погода в Nueva Casas Grandes (Мексика) (328 км)
Погода в Loreto (Мексика) (342 км)

Пояснения к столбцам:

Ветер - указаны скорость ветра в м/с - средняя за 10 мин, порывы в срок и между сроками (в фигурных скобках) и направление, откуда дует ветер: С - северный, СВ - северо-восточный, В - восточный, ЮВ - юго-восточный, Ю - южный, ЮЗ - юго-западный, З - западный, СЗ - северо-западный.
Видимость - горизонтальная дальность видимости в метрах или километрах. При видимости от 1 до 10 км при отсутствии осадков обычно наблюдается дымка, при ухудшении видимости до 1 км и менее - туман. В сухую погоду видимость может ухудшаться дымом, пылью или мглою.
Явления - указаны атмосферные явления, наблюдавшиеся в срок или в последний час перед сроком; фигурными скобками обозначены явления, наблюдавшиеся между сроками (за 1-3 часа до срока); квадратными скобками обозначены град или гололедные отложения с указанием их диаметра в мм.
Облачность - указаны через наклонную черту общая и нижняя облачность в баллах и высота нижней границы облаков в метрах; квадратными скобками обозначены формы облаков: Ci - перистые, Cs - перисто-слоистые, Cc - перисто-кучевые, Ac - высококучевые, As - высокослоистые, Sc - слоисто-кучевые, Ns - слоисто-дождевые, Cu - кучевые, Cb - кучево-дождевые. Подробнее классификацию облаков см. в Атласе облаков (PDF).
T - Температура воздуха - температура, измеренная на высоте 2 м над землей.
Td - Температура точки росы - температура, при понижении до которой содержащийся в воздухе водяной пар достигнет насыщения.
f - Относительная влажность воздуха - влажноcть воздуха, измеренная на высоте 2 м над землей.
Te - Эффективная температура - температура, которую ощущает одетый по сезону человек в тени. Характеристика душности погоды. При расчете учитывается влияние влажности воздуха и скорости ветра на теплоощущения человека.
Tes - Эффективная температура на солнце - температура, которую ощущает человек, с поправкой на солнечный нагрев. Характеристика знойности погоды. Зависит от высоты солнца над горизонтом, облачности и скорости ветра. Ночью, в пасмурную погоду, а также при ветре 12 м/с и более поправка равна нулю.
P - Атмосферное давление - приведенное к уровню моря атмосферное давление.
Po - Атмосферное давление - измеренное на уровне метеостанции атмосферное давление.
Tmin - Минимальная температура - минимум температуры воздуха на высоте 2 м над землей.
Tmax - Максимальная температура - максимум температуры воздуха на высоте 2 м над землей.
R - Количество осадков - Количество выпавших осадков, мм. При наведении курсора мыши на число - период времени, за который выпало указанное количество осадков.
S - Снежный покров - Высота снежного покрова, см. При наведении курсора мыши на число - состояние снежного покрова и степень покрытия местности в баллах.